Starlink 34621

operational
NORAD ID: 64774 Int'l Des: 2025-147 Owner: SPXS Country: US Constellation: starlink
LEOCIRCULAR

Starlink 34621について

説明を読み込み中...

リアルタイム位置

3D地球を読み込み中...

次回通過

高度履歴

Altitude vs Time

uPlot chart will show altitude changes over time

軌道要素

1 64774U 25147V 25340.65403775 .00059354 00000-0 19993-2 0 9997
2 64774 53.1626 315.1697 0001758 86.7992 273.3210 15.30212916 24438
Epoch: Dec 6, 2025 • Age: 19 hours

現在のステータス

高度 479.1 km
速度 7.63 km/s
衛星直下点 47.96°N, 165.68°W
打ち上げ日 Jul 8, 2025
運用期間 0.4 years
タイプ internet

技術仕様

分類 Payload
質量 575.00 kg
乾燥質量 530.00 kg
総質量 575.00 kg
長さ 0.30 m
直径 4.10 m
スパン 29.00 m
形状 Box + pan
製造者 SPXS
バスタイプ Starlink V2MO
フェーズステータス In Orbit
所有者/国 SPXS/US

大規模コンステレーション

Loading constellations...